Time,TemperatureF,DewpointF,PressureIn,WindDirection,WindDirectionDegrees,WindSpeedMPH,WindSpeedGustMPH,Humidity,HourlyPrecipIn,Conditions,Clouds,dailyrainin,SoftwareType,DateUTC
2013-05-06 00:01:00,56.7,36.7,30.10,SW,216,0.0,0.0,47,0.00,,---,0.00,VWS V14.01,2013-05-06 04:01:00,
2013-05-06 00:02:00,56.6,36.1,30.10,SW,216,0.0,0.0,46,0.00,,---,0.00,VWS V14.01,2013-05-06 04:02:00,
2013-05-06 00:07:00,56.5,36.0,30.10,SW,216,0.0,0.0,46,0.00,,---,0.00,VWS V14.01,2013-05-06 04:07:00,
2013-05-06 00:12:00,56.5,36.5,30.10,SW,216,0.0,0.0,47,0.00,,---,0.00,VWS V14.01,2013-05-06 04:12:00,
2013-05-06 00:17:00,56.3,36.3,30.10,SW,216,0.0,0.0,47,0.00,,---,0.00,VWS V14.01,2013-05-06 04:17:00,
2013-05-06 00:22:00,56.3,35.8,30.10,SW,216,0.0,0.0,46,0.00,,---,0.00,VWS V14.01,2013-05-06 04:22:00,
2013-05-06 00:27:00,56.2,35.7,30.10,SW,216,0.0,0.0,46,0.00,,---,0.00,VWS V14.01,2013-05-06 04:27:00,
2013-05-06 00:32:00,56.2,36.3,30.10,SSW,213,0.0,0.0,47,0.00,,---,0.00,VWS V14.01,2013-05-06 04:32:00,
2013-05-06 00:37:00,56.0,36.1,30.10,SSW,213,0.0,0.0,47,0.00,,---,0.00,VWS V14.01,2013-05-06 04:37:00,
2013-05-06 00:42:00,55.9,36.0,30.10,SSW,213,0.0,0.0,47,0.00,,---,0.00,VWS V14.01,2013-05-06 04:42:00,
2013-05-06 00:47:00,55.7,36.3,30.10,SSW,213,0.0,0.0,48,0.00,,---,0.00,VWS V14.01,2013-05-06 04:47:00,
2013-05-06 00:53:00,55.7,35.8,30.10,SW,223,0.0,0.0,47,0.00,,---,0.00,VWS V14.01,2013-05-06 04:53:00,
2013-05-06 00:58:00,55.7,35.8,30.10,SSW,210,0.0,0.0,47,0.00,,---,0.00,VWS V14.01,2013-05-06 04:58:00,
2013-05-06 01:03:00,55.7,35.8,30.10,SSW,205,0.0,0.0,47,0.00,,---,0.00,VWS V14.01,2013-05-06 05:03:00,
2013-05-06 01:08:00,55.7,36.3,30.10,SSW,203,0.0,0.0,48,0.00,,---,0.00,VWS V14.01,2013-05-06 05:08:00,
2013-05-06 01:13:00,55.6,35.7,30.10,SSW,199,0.0,0.0,47,0.00,,---,0.00,VWS V14.01,2013-05-06 05:13:00,
2013-05-06 01:18:00,55.6,36.2,30.10,SSW,200,0.0,0.0,48,0.00,,---,0.00,VWS V14.01,2013-05-06 05:18:00,
2013-05-06 01:23:00,55.4,35.5,30.10,SSW,201,0.0,0.0,47,0.00,,---,0.00,VWS V14.01,2013-05-06 05:23:00,
2013-05-06 01:28:00,55.3,36.0,30.10,SSW,213,0.0,0.0,48,0.00,,---,0.00,VWS V14.01,2013-05-06 05:28:00,
2013-05-06 01:33:00,55.3,36.0,30.10,SW,224,0.0,0.0,48,0.00,,---,0.00,VWS V14.01,2013-05-06 05:33:00,
2013-05-06 01:38:00,55.1,35.8,30.10,SSW,213,0.0,0.0,48,0.00,,---,0.00,VWS V14.01,2013-05-06 05:38:00,
2013-05-06 01:43:00,55.1,35.8,30.10,South,179,0.0,0.0,48,0.00,,---,0.00,VWS V14.01,2013-05-06 05:43:00,
2013-05-06 01:48:00,55.1,36.3,30.09,SW,218,0.0,0.0,49,0.00,,---,0.00,VWS V14.01,2013-05-06 05:48:00,
2013-05-06 01:53:00,55.0,36.2,30.10,SSW,207,0.0,0.0,49,0.00,,---,0.00,VWS V14.01,2013-05-06 05:53:00,
2013-05-06 01:58:00,55.0,36.2,30.09,SSW,207,0.0,0.0,49,0.00,,---,0.00,VWS V14.01,2013-05-06 05:58:00,
2013-05-06 02:03:00,54.8,37.0,30.09,SSW,208,0.0,0.0,51,0.00,,---,0.00,VWS V14.01,2013-05-06 06:03:00,
2013-05-06 02:08:00,54.7,37.4,30.09,SSW,208,0.0,0.0,52,0.00,,---,0.00,VWS V14.01,2013-05-06 06:08:00,
2013-05-06 02:13:00,54.5,37.2,30.09,SSW,208,0.0,0.0,52,0.00,,---,0.00,VWS V14.01,2013-05-06 06:13:00,
2013-05-06 02:18:00,54.2,37.0,30.10,SSW,209,0.0,0.0,52,0.00,,---,0.00,VWS V14.01,2013-05-06 06:18:00,
2013-05-06 02:23:00,54.1,37.4,30.09,SW,219,0.0,0.0,53,0.00,,---,0.00,VWS V14.01,2013-05-06 06:23:00,
2013-05-06 02:28:00,53.9,36.7,30.09,SW,223,0.0,0.0,52,0.00,,---,0.00,VWS V14.01,2013-05-06 06:28:00,
2013-05-06 02:33:00,53.9,36.7,30.10,SW,216,0.0,0.0,52,0.00,,---,0.00,VWS V14.01,2013-05-06 06:33:00,
2013-05-06 02:38:00,53.6,36.9,30.10,SSW,213,0.0,0.0,53,0.00,,---,0.00,VWS V14.01,2013-05-06 06:38:00,
2013-05-06 02:43:00,53.5,37.3,30.10,SSW,213,0.0,0.0,54,0.00,,---,0.00,VWS V14.01,2013-05-06 06:43:00,
2013-05-06 02:48:00,53.3,37.1,30.10,SW,223,0.0,0.0,54,0.00,,---,0.00,VWS V14.01,2013-05-06 06:48:00,
2013-05-06 02:53:00,53.3,37.6,30.10,SW,220,0.0,0.0,55,0.00,,---,0.00,VWS V14.01,2013-05-06 06:53:00,
2013-05-06 02:58:00,53.2,37.9,30.10,SW,215,0.0,0.0,56,0.00,,---,0.00,VWS V14.01,2013-05-06 06:58:00,
2013-05-06 03:03:00,53.1,37.8,30.09,SW,215,0.0,0.0,56,0.00,,---,0.00,VWS V14.01,2013-05-06 07:03:00,
2013-05-06 03:08:00,52.9,37.7,30.09,SW,215,0.0,0.0,56,0.00,,---,0.00,VWS V14.01,2013-05-06 07:08:00,
2013-05-06 03:13:00,52.5,38.2,30.09,SW,217,0.0,0.0,58,0.00,,---,0.00,VWS V14.01,2013-05-06 07:13:00,
2013-05-06 03:18:00,51.9,38.5,30.09,SW,217,0.0,0.0,60,0.00,,---,0.00,VWS V14.01,2013-05-06 07:18:00,
2013-05-06 03:23:00,51.1,38.1,30.09,SW,217,0.0,0.0,61,0.00,,---,0.00,VWS V14.01,2013-05-06 07:23:00,
2013-05-06 03:29:00,50.5,38.4,30.09,SW,217,0.0,0.0,63,0.00,,---,0.00,VWS V14.01,2013-05-06 07:29:00,
2013-05-06 03:34:00,50.2,38.5,30.09,SW,217,0.0,0.0,64,0.00,,---,0.00,VWS V14.01,2013-05-06 07:34:00,
2013-05-06 03:39:00,49.9,38.2,30.09,SW,217,0.0,0.0,64,0.00,,---,0.00,VWS V14.01,2013-05-06 07:39:00,
2013-05-06 03:44:00,49.6,38.3,30.09,SW,217,0.0,0.0,65,0.00,,---,0.00,VWS V14.01,2013-05-06 07:44:00,
2013-05-06 03:49:00,49.4,37.8,30.09,SW,217,0.0,0.0,64,0.00,,---,0.00,VWS V14.01,2013-05-06 07:49:00,
2013-05-06 03:54:00,49.1,38.2,30.09,SW,217,0.0,0.0,66,0.00,,---,0.00,VWS V14.01,2013-05-06 07:54:00,
2013-05-06 03:59:00,48.6,37.8,30.09,SW,217,0.0,0.0,66,0.00,,---,0.00,VWS V14.01,2013-05-06 07:59:00,
2013-05-06 04:04:00,48.3,37.5,30.09,SW,217,0.0,0.0,66,0.00,,---,0.00,VWS V14.01,2013-05-06 08:04:00,
2013-05-06 04:09:00,48.0,38.3,30.09,SW,217,0.0,0.0,69,0.00,,---,0.00,VWS V14.01,2013-05-06 08:09:00,
2013-05-06 04:14:00,47.9,39.3,30.09,SW,217,0.0,0.0,72,0.00,,---,0.00,VWS V14.01,2013-05-06 08:14:00,
2013-05-06 04:19:00,47.6,39.4,30.09,SW,217,0.0,0.0,73,0.00,,---,0.00,VWS V14.01,2013-05-06 08:19:00,
2013-05-06 04:24:00,47.4,39.2,30.09,SW,217,0.0,0.0,73,0.00,,---,0.00,VWS V14.01,2013-05-06 08:24:00,
2013-05-06 04:29:00,47.1,39.2,30.09,SW,217,0.0,0.0,74,0.00,,---,0.00,VWS V14.01,2013-05-06 08:29:00,
2013-05-06 04:34:00,47.0,38.8,30.10,SW,217,0.0,0.0,73,0.00,,---,0.00,VWS V14.01,2013-05-06 08:34:00,
2013-05-06 04:39:00,46.8,39.0,30.09,SW,217,0.0,0.0,74,0.00,,---,0.00,VWS V14.01,2013-05-06 08:39:00,
2013-05-06 04:44:00,46.7,38.5,30.10,SW,217,0.0,0.0,73,0.00,,---,0.00,VWS V14.01,2013-05-06 08:44:00,
2013-05-06 04:49:00,46.5,38.7,30.10,SW,217,0.0,0.0,74,0.00,,---,0.00,VWS V14.01,2013-05-06 08:49:00,
2013-05-06 04:54:00,46.2,38.4,30.10,SW,217,0.0,0.0,74,0.00,,---,0.00,VWS V14.01,2013-05-06 08:54:00,
2013-05-06 04:59:00,46.1,38.3,30.10,SW,217,0.0,0.0,74,0.00,,---,0.00,VWS V14.01,2013-05-06 08:59:00,
2013-05-06 05:04:00,45.8,38.0,30.10,SW,217,0.0,0.0,74,0.00,,---,0.00,VWS V14.01,2013-05-06 09:04:00,
2013-05-06 05:09:00,45.7,38.2,30.10,SW,217,0.0,0.0,75,0.00,,---,0.00,VWS V14.01,2013-05-06 09:09:00,
2013-05-06 05:14:00,45.4,38.0,30.10,SW,217,0.0,0.0,75,0.00,,---,0.00,VWS V14.01,2013-05-06 09:14:00,
2013-05-06 05:19:00,45.1,38.0,30.10,SW,217,0.0,0.0,76,0.00,,---,0.00,VWS V14.01,2013-05-06 09:19:00,
2013-05-06 05:24:00,45.1,38.0,30.10,SW,217,0.0,0.0,76,0.00,,---,0.00,VWS V14.01,2013-05-06 09:24:00,
2013-05-06 05:29:00,44.9,37.8,30.10,SW,217,0.0,0.0,76,0.00,,---,0.00,VWS V14.01,2013-05-06 09:29:00,
2013-05-06 05:34:00,44.8,38.0,30.10,SW,217,0.0,0.0,77,0.00,,---,0.00,VWS V14.01,2013-05-06 09:34:00,
2013-05-06 05:39:00,44.8,38.0,30.11,SW,217,0.0,0.0,77,0.00,,---,0.00,VWS V14.01,2013-05-06 09:39:00,
2013-05-06 05:44:00,44.6,38.2,30.11,SW,217,0.0,0.0,78,0.00,,---,0.00,VWS V14.01,2013-05-06 09:44:00,
2013-05-06 05:49:00,44.6,38.2,30.11,SW,217,0.0,0.0,78,0.00,,---,0.00,VWS V14.01,2013-05-06 09:49:00,
2013-05-06 05:54:00,44.6,38.2,30.11,SW,217,0.0,0.0,78,0.00,,---,0.00,VWS V14.01,2013-05-06 09:54:00,
2013-05-06 05:59:00,44.5,37.8,30.11,SW,217,0.0,0.0,77,0.00,,---,0.00,VWS V14.01,2013-05-06 09:59:00,
2013-05-06 06:04:00,44.5,37.8,30.11,SW,217,0.0,0.0,77,0.00,,---,0.00,VWS V14.01,2013-05-06 10:04:00,
2013-05-06 06:09:00,44.3,37.6,30.11,SW,217,0.0,0.0,77,0.00,,---,0.00,VWS V14.01,2013-05-06 10:09:00,
2013-05-06 06:15:00,44.2,37.5,30.11,SW,217,0.0,0.0,77,0.00,,---,0.00,VWS V14.01,2013-05-06 10:15:00,
2013-05-06 06:20:00,44.1,37.7,30.11,SW,217,0.0,0.0,78,0.00,,---,0.00,VWS V14.01,2013-05-06 10:20:00,
2013-05-06 06:25:00,43.9,37.5,30.11,SW,217,0.0,0.0,78,0.00,,---,0.00,VWS V14.01,2013-05-06 10:25:00,
2013-05-06 06:30:00,43.6,37.5,30.11,SW,217,0.0,0.0,79,0.00,,---,0.00,VWS V14.01,2013-05-06 10:30:00,
2013-05-06 06:35:00,43.5,37.4,30.11,SW,217,0.0,0.0,79,0.00,,---,0.00,VWS V14.01,2013-05-06 10:35:00,
2013-05-06 06:40:00,43.3,37.6,30.12,SW,217,0.0,0.0,80,0.00,,---,0.00,VWS V14.01,2013-05-06 10:40:00,
2013-05-06 06:45:00,43.2,38.1,30.12,SW,217,0.0,0.0,82,0.00,,---,0.00,VWS V14.01,2013-05-06 10:45:00,
2013-05-06 06:50:00,43.1,38.3,30.12,SW,217,0.0,0.0,83,0.00,,---,0.00,VWS V14.01,2013-05-06 10:50:00,
2013-05-06 06:55:00,43.1,38.6,30.12,SW,217,0.0,0.0,84,0.00,,---,0.00,VWS V14.01,2013-05-06 10:55:00,
2013-05-06 07:00:00,43.1,38.6,30.12,SW,217,0.0,0.0,84,0.00,,---,0.00,VWS V14.01,2013-05-06 11:00:00,
2013-05-06 07:05:00,43.1,38.9,30.12,SW,217,0.0,0.0,85,0.00,,---,0.00,VWS V14.01,2013-05-06 11:05:00,
2013-05-06 07:10:00,43.2,39.3,30.12,SW,217,0.0,0.0,86,0.00,,---,0.00,VWS V14.01,2013-05-06 11:10:00,
2013-05-06 07:15:00,43.3,40.0,30.13,SW,217,0.0,0.0,88,0.00,,---,0.00,VWS V14.01,2013-05-06 11:15:00,
2013-05-06 07:20:00,43.6,40.6,30.13,SW,217,0.0,0.0,89,0.00,,---,0.00,VWS V14.01,2013-05-06 11:20:00,
2013-05-06 07:25:00,43.9,40.9,30.13,SW,217,0.0,0.0,89,0.00,,---,0.00,VWS V14.01,2013-05-06 11:25:00,
2013-05-06 07:30:00,44.6,41.8,30.13,SW,217,0.0,0.0,90,0.00,,---,0.00,VWS V14.01,2013-05-06 11:30:00,
2013-05-06 07:35:00,45.7,42.7,30.13,SW,217,0.0,0.0,89,0.00,,---,0.00,VWS V14.01,2013-05-06 11:35:00,
2013-05-06 07:40:00,46.5,42.8,30.13,SW,217,0.0,0.0,87,0.00,,---,0.00,VWS V14.01,2013-05-06 11:40:00,
2013-05-06 07:45:00,47.4,43.7,30.13,SW,217,0.0,0.0,87,0.00,,---,0.00,VWS V14.01,2013-05-06 11:45:00,
2013-05-06 07:50:00,48.5,44.2,30.13,SW,217,0.0,0.0,85,0.00,,---,0.00,VWS V14.01,2013-05-06 11:50:00,
2013-05-06 07:55:00,49.2,44.3,30.13,SW,217,0.0,0.0,83,0.00,,---,0.00,VWS V14.01,2013-05-06 11:55:00,
2013-05-06 08:00:00,49.8,44.2,30.13,SW,217,0.0,0.0,81,0.00,,---,0.00,VWS V14.01,2013-05-06 12:00:00,
2013-05-06 08:05:00,50.7,44.4,30.13,SW,217,0.0,0.0,79,0.00,,---,0.00,VWS V14.01,2013-05-06 12:05:00,
2013-05-06 08:10:00,51.4,44.4,30.13,SW,217,0.0,0.0,77,0.00,,---,0.00,VWS V14.01,2013-05-06 12:10:00,
2013-05-06 08:15:00,52.0,44.7,30.13,SW,217,0.0,0.0,76,0.00,,---,0.00,VWS V14.01,2013-05-06 12:15:00,
2013-05-06 08:20:00,53.1,45.0,30.14,SW,217,0.0,0.0,74,0.00,,---,0.00,VWS V14.01,2013-05-06 12:20:00,
2013-05-06 08:25:00,53.5,46.1,30.14,SW,217,0.0,0.0,76,0.00,,---,0.00,VWS V14.01,2013-05-06 12:25:00,
2013-05-06 08:30:00,54.1,44.9,30.14,SW,217,0.0,0.0,71,0.00,,---,0.00,VWS V14.01,2013-05-06 12:30:00,
2013-05-06 08:35:00,55.0,45.0,30.14,SW,217,0.0,0.0,69,0.00,,---,0.00,VWS V14.01,2013-05-06 12:35:00,
2013-05-06 08:40:00,55.7,44.1,30.14,SW,217,0.0,0.0,65,0.00,,---,0.00,VWS V14.01,2013-05-06 12:40:00,
2013-05-06 08:45:00,56.2,43.8,30.14,SW,217,0.0,0.0,63,0.00,,---,0.00,VWS V14.01,2013-05-06 12:45:00,
2013-05-06 08:50:00,57.0,44.5,30.14,SW,217,0.0,0.0,63,0.00,,---,0.00,VWS V14.01,2013-05-06 12:50:00,
2013-05-06 08:55:00,58.0,45.9,30.13,SW,217,0.0,0.0,64,0.00,,---,0.00,VWS V14.01,2013-05-06 12:55:00,
2013-05-06 09:01:00,58.4,45.9,30.14,SW,217,0.0,0.0,63,0.00,,---,0.00,VWS V14.01,2013-05-06 13:01:00,
2013-05-06 09:06:00,58.4,45.9,30.14,SW,217,0.0,0.0,63,0.00,,---,0.00,VWS V14.01,2013-05-06 13:06:00,
2013-05-06 09:11:00,58.3,44.5,30.14,SW,217,0.0,0.0,60,0.00,,---,0.00,VWS V14.01,2013-05-06 13:11:00,
2013-05-06 09:16:00,58.1,43.9,30.14,SW,217,0.0,0.0,59,0.00,,---,0.00,VWS V14.01,2013-05-06 13:16:00,
2013-05-06 09:21:00,58.7,44.0,30.14,SW,217,0.0,0.0,58,0.00,,---,0.00,VWS V14.01,2013-05-06 13:21:00,
2013-05-06 09:26:00,58.7,42.6,30.14,SW,217,0.0,0.0,55,0.00,,---,0.00,VWS V14.01,2013-05-06 13:26:00,
2013-05-06 09:31:00,59.6,44.8,30.14,SW,217,0.0,0.0,58,0.00,,---,0.00,VWS V14.01,2013-05-06 13:31:00,
2013-05-06 09:36:00,60.4,44.7,30.14,SW,217,0.0,0.0,56,0.00,,---,0.00,VWS V14.01,2013-05-06 13:36:00,
2013-05-06 09:41:00,61.2,42.4,30.14,SW,217,0.0,0.0,50,0.00,,---,0.00,VWS V14.01,2013-05-06 13:41:00,
2013-05-06 09:46:00,61.8,41.9,30.14,SW,217,0.0,0.0,48,0.00,,---,0.00,VWS V14.01,2013-05-06 13:46:00,
2013-05-06 09:51:00,62.7,42.8,30.13,SW,217,0.0,0.0,48,0.00,,---,0.00,VWS V14.01,2013-05-06 13:51:00,
2013-05-06 09:56:00,63.4,42.8,30.14,SW,217,0.0,0.0,47,0.00,,---,0.00,VWS V14.01,2013-05-06 13:56:00,
2013-05-06 10:01:00,64.0,43.9,30.14,SW,217,0.0,0.0,48,0.00,,---,0.00,VWS V14.01,2013-05-06 14:01:00,
2013-05-06 10:06:00,64.3,42.5,30.13,WSW,254,0.0,0.0,45,0.00,,---,0.00,VWS V14.01,2013-05-06 14:06:00,
2013-05-06 10:11:00,64.8,44.1,30.13,WSW,254,0.0,0.0,47,0.00,,---,0.00,VWS V14.01,2013-05-06 14:11:00,
2013-05-06 10:16:00,65.3,42.8,30.13,WSW,254,0.0,0.0,44,0.00,,---,0.00,VWS V14.01,2013-05-06 14:16:00,
2013-05-06 10:21:00,66.0,43.5,30.13,WSW,254,0.0,0.0,44,0.00,,---,0.00,VWS V14.01,2013-05-06 14:21:00,
2013-05-06 10:26:00,66.6,44.0,30.13,West,261,0.0,0.0,44,0.00,,---,0.00,VWS V14.01,2013-05-06 14:26:00,
2013-05-06 10:31:00,66.9,43.7,30.13,WNW,297,0.0,0.0,43,0.00,,---,0.00,VWS V14.01,2013-05-06 14:31:00,
2013-05-06 10:36:00,67.1,43.9,30.13,WNW,301,0.0,0.0,43,0.00,,---,0.00,VWS V14.01,2013-05-06 14:36:00,
2013-05-06 10:41:00,67.8,43.3,30.13,NNW,333,0.0,0.0,41,0.00,,---,0.00,VWS V14.01,2013-05-06 14:41:00,
2013-05-06 10:46:00,68.6,42.7,30.12,NNW,340,0.0,0.0,39,0.00,,---,0.00,VWS V14.01,2013-05-06 14:46:00,
2013-05-06 10:51:00,68.9,42.3,30.12,NNW,340,0.0,0.0,38,0.00,,---,0.00,VWS V14.01,2013-05-06 14:51:00,
2013-05-06 10:56:00,69.6,44.2,30.12,NNW,333,0.0,0.0,40,0.00,,---,0.00,VWS V14.01,2013-05-06 14:56:00,
2013-05-06 11:01:00,69.9,38.7,30.12,NNW,333,0.0,0.0,32,0.00,,---,0.00,VWS V14.01,2013-05-06 15:01:00,
2013-05-06 11:06:00,70.6,35.9,30.12,NNW,327,0.0,0.0,28,0.00,,---,0.00,VWS V14.01,2013-05-06 15:06:00,
2013-05-06 11:11:00,70.9,34.3,30.12,NW,320,0.0,0.0,26,0.00,,---,0.00,VWS V14.01,2013-05-06 15:11:00,
2013-05-06 11:16:00,71.8,34.1,30.12,NW,317,0.0,0.0,25,0.00,,---,0.00,VWS V14.01,2013-05-06 15:16:00,
2013-05-06 11:21:00,72.1,37.2,30.12,NW,319,0.0,0.0,28,0.00,,---,0.00,VWS V14.01,2013-05-06 15:21:00,
2013-05-06 11:26:00,72.3,35.5,30.12,NW,321,0.0,0.0,26,0.00,,---,0.00,VWS V14.01,2013-05-06 15:26:00,
2013-05-06 11:31:00,72.1,33.3,30.12,North,9,0.0,0.0,24,0.00,,---,0.00,VWS V14.01,2013-05-06 15:31:00,
2013-05-06 11:37:00,71.6,31.9,30.12,North,10,0.0,0.0,23,0.00,,---,0.00,VWS V14.01,2013-05-06 15:37:00,
2013-05-06 11:42:00,71.6,34.0,30.12,North,5,0.0,0.0,25,0.00,,---,0.00,VWS V14.01,2013-05-06 15:42:00,
2013-05-06 11:47:00,71.6,35.9,30.12,NNW,344,0.0,0.0,27,0.00,,---,0.00,VWS V14.01,2013-05-06 15:47:00,
2013-05-06 11:52:00,71.8,34.1,30.12,North,5,0.0,0.0,25,0.00,,---,0.00,VWS V14.01,2013-05-06 15:52:00,
2013-05-06 11:57:00,72.1,35.4,30.12,NNE,19,0.0,0.0,26,0.00,,---,0.00,VWS V14.01,2013-05-06 15:57:00,
2013-05-06 12:02:00,72.5,33.7,30.12,NNE,32,0.0,0.0,24,0.00,,---,0.00,VWS V14.01,2013-05-06 16:02:00,
2013-05-06 12:07:00,72.7,34.9,30.11,North,10,0.0,0.0,25,0.00,,---,0.00,VWS V14.01,2013-05-06 16:07:00,
2013-05-06 12:12:00,72.8,36.0,30.11,NNE,28,0.0,0.0,26,0.00,,---,0.00,VWS V14.01,2013-05-06 16:12:00,
2013-05-06 12:17:00,73.0,34.1,30.11,NW,319,0.0,0.0,24,0.00,,---,0.00,VWS V14.01,2013-05-06 16:17:00,
2013-05-06 12:22:00,73.5,34.5,30.11,North,360,0.0,0.0,24,0.00,,---,0.00,VWS V14.01,2013-05-06 16:22:00,
2013-05-06 12:27:00,73.9,33.8,30.11,NW,319,0.0,0.0,23,0.00,,---,0.00,VWS V14.01,2013-05-06 16:27:00,
2013-05-06 12:32:00,74.2,35.1,30.11,North,11,0.0,0.0,24,0.00,,---,0.00,VWS V14.01,2013-05-06 16:32:00,
2013-05-06 12:37:00,74.0,35.0,30.10,NE,41,0.0,0.0,24,0.00,,---,0.00,VWS V14.01,2013-05-06 16:37:00,
2013-05-06 12:42:00,74.2,35.1,30.10,ENE,71,0.0,0.0,24,0.00,,---,0.00,VWS V14.01,2013-05-06 16:42:00,
2013-05-06 12:47:00,74.2,34.1,30.10,NE,49,0.0,0.0,23,0.00,,---,0.00,VWS V14.01,2013-05-06 16:47:00,
2013-05-06 12:52:00,74.0,32.8,30.10,East,84,0.0,0.0,22,0.00,,---,0.00,VWS V14.01,2013-05-06 16:52:00,
2013-05-06 12:57:00,74.2,36.2,30.10,NNE,18,0.0,0.0,25,0.00,,---,0.00,VWS V14.01,2013-05-06 16:57:00,
2013-05-06 13:02:00,73.9,34.9,30.09,North,11,0.0,0.0,24,0.00,,---,0.00,VWS V14.01,2013-05-06 17:02:00,
2013-05-06 13:07:00,73.7,35.7,30.09,North,349,0.0,0.0,25,0.00,,---,0.00,VWS V14.01,2013-05-06 17:07:00,
2013-05-06 13:12:00,73.7,36.7,30.09,NNW,342,0.0,0.0,26,0.00,,---,0.00,VWS V14.01,2013-05-06 17:12:00,
2013-05-06 13:17:00,73.3,35.4,30.09,NNE,32,0.0,0.0,25,0.00,,---,0.00,VWS V14.01,2013-05-06 17:17:00,
2013-05-06 13:22:00,72.7,35.9,30.09,North,11,0.0,0.0,26,0.00,,---,0.00,VWS V14.01,2013-05-06 17:22:00,
2013-05-06 13:27:00,71.8,34.1,30.09,NNE,23,0.0,0.0,25,0.00,,---,0.00,VWS V14.01,2013-05-06 17:27:00,
2013-05-06 13:32:00,70.8,36.1,30.09,NE,40,0.0,0.0,28,0.00,,---,0.00,VWS V14.01,2013-05-06 17:32:00,
2013-05-06 13:37:00,70.6,34.1,30.09,NNE,33,0.0,0.0,26,0.00,,---,0.00,VWS V14.01,2013-05-06 17:37:00,
2013-05-06 13:42:00,70.4,33.9,30.09,NE,47,0.0,0.0,26,0.00,,---,0.00,VWS V14.01,2013-05-06 17:42:00,
2013-05-06 13:47:00,70.4,33.9,30.09,NE,44,0.0,0.0,26,0.00,,---,0.00,VWS V14.01,2013-05-06 17:47:00,
2013-05-06 13:52:00,70.8,34.2,30.09,NNE,22,0.0,0.0,26,0.00,,---,0.00,VWS V14.01,2013-05-06 17:52:00,
2013-05-06 13:57:00,70.6,33.1,30.09,NE,44,0.0,0.0,25,0.00,,---,0.00,VWS V14.01,2013-05-06 17:57:00,
2013-05-06 14:02:00,70.6,36.8,30.08,NE,35,0.0,0.0,29,0.00,,---,0.00,VWS V14.01,2013-05-06 18:02:00,
2013-05-06 14:07:00,70.6,35.9,30.08,NE,51,0.0,0.0,28,0.00,,---,0.00,VWS V14.01,2013-05-06 18:07:00,
2013-05-06 14:12:00,70.3,34.8,30.08,NNE,28,0.0,0.0,27,0.00,,---,0.00,VWS V14.01,2013-05-06 18:12:00,
2013-05-06 14:17:00,70.1,35.5,30.08,North,5,0.0,0.0,28,0.00,,---,0.00,VWS V14.01,2013-05-06 18:17:00,
2013-05-06 14:22:00,69.9,35.3,30.08,NE,34,0.0,0.0,28,0.00,,---,0.00,VWS V14.01,2013-05-06 18:22:00,
2013-05-06 14:27:00,69.9,35.3,30.08,NE,48,0.0,0.0,28,0.00,,---,0.00,VWS V14.01,2013-05-06 18:27:00,
2013-05-06 14:32:00,70.3,36.6,30.08,NNE,22,0.0,0.0,29,0.00,,---,0.00,VWS V14.01,2013-05-06 18:32:00,
2013-05-06 14:37:00,70.4,37.5,30.08,NNE,30,0.0,0.0,30,0.00,,---,0.00,VWS V14.01,2013-05-06 18:37:00,
2013-05-06 14:42:00,70.3,38.3,30.08,NE,46,0.0,0.0,31,0.00,,---,0.00,VWS V14.01,2013-05-06 18:42:00,
2013-05-06 14:47:00,70.4,36.7,30.08,NE,51,0.0,0.0,29,0.00,,---,0.00,VWS V14.01,2013-05-06 18:47:00,
2013-05-06 14:52:00,70.3,35.7,30.08,NNE,25,0.0,0.0,28,0.00,,---,0.00,VWS V14.01,2013-05-06 18:52:00,
2013-05-06 14:57:00,69.9,37.9,30.08,North,5,0.0,0.0,31,0.00,,---,0.00,VWS V14.01,2013-05-06 18:57:00,
2013-05-06 15:02:00,69.8,37.8,30.08,NE,38,0.0,0.0,31,0.00,,---,0.00,VWS V14.01,2013-05-06 19:02:00,
2013-05-06 15:07:00,69.8,35.3,30.08,NE,37,0.0,0.0,28,0.00,,---,0.00,VWS V14.01,2013-05-06 19:07:00,
2013-05-06 15:13:00,69.3,33.9,30.08,NE,40,0.0,0.0,27,0.00,,---,0.00,VWS V14.01,2013-05-06 19:13:00,
2013-05-06 15:18:00,68.9,36.2,30.08,NE,34,0.0,0.0,30,0.00,,---,0.00,VWS V14.01,2013-05-06 19:18:00,
2013-05-06 15:23:00,68.8,36.1,30.07,NNE,32,0.0,0.0,30,0.00,,---,0.00,VWS V14.01,2013-05-06 19:23:00,
2013-05-06 15:28:00,68.6,36.8,30.07,NE,43,0.0,0.0,31,0.00,,---,0.00,VWS V14.01,2013-05-06 19:28:00,
2013-05-06 15:32:00,68.3,37.3,30.07,NNE,28,0.0,0.0,32,0.00,,---,0.00,VWS V14.01,2013-05-06 19:32:00,
2013-05-06 15:37:00,68.6,36.8,30.07,NNE,26,0.0,0.0,31,0.00,,---,0.00,VWS V14.01,2013-05-06 19:37:00,
2013-05-06 15:43:00,68.9,34.5,30.07,NE,39,0.0,0.0,28,0.00,,---,0.00,VWS V14.01,2013-05-06 19:43:00,
2013-05-06 15:48:00,69.1,37.2,30.06,NE,44,0.0,0.0,31,0.00,,---,0.00,VWS V14.01,2013-05-06 19:48:00,
2013-05-06 15:53:00,69.1,35.5,30.06,NE,48,0.0,0.0,29,0.00,,---,0.00,VWS V14.01,2013-05-06 19:53:00,
2013-05-06 15:58:00,68.8,36.1,30.06,NE,35,0.0,0.0,30,0.00,,---,0.00,VWS V14.01,2013-05-06 19:58:00,
2013-05-06 16:03:00,68.3,35.7,30.06,NNE,23,0.0,0.0,30,0.00,,---,0.00,VWS V14.01,2013-05-06 20:03:00,
2013-05-06 16:08:00,67.9,36.2,30.06,NE,34,0.0,0.0,31,0.00,,---,0.00,VWS V14.01,2013-05-06 20:08:00,
2013-05-06 16:13:00,67.9,37.0,30.05,NNE,26,0.0,0.0,32,0.00,,---,0.00,VWS V14.01,2013-05-06 20:13:00,
2013-05-06 16:18:00,67.9,39.3,30.05,NE,52,0.0,0.0,35,0.00,,---,0.00,VWS V14.01,2013-05-06 20:18:00,
2013-05-06 16:23:00,67.9,38.5,30.05,ENE,57,0.0,0.0,34,0.00,,---,0.00,VWS V14.01,2013-05-06 20:23:00,
2013-05-06 16:28:00,68.4,39.7,30.05,NE,45,0.0,0.0,35,0.00,,---,0.00,VWS V14.01,2013-05-06 20:28:00,
2013-05-06 16:33:00,68.8,37.8,30.05,NE,41,0.0,0.0,32,0.00,,---,0.00,VWS V14.01,2013-05-06 20:33:00,
2013-05-06 16:38:00,68.6,39.1,30.05,NNE,30,0.0,0.0,34,0.00,,---,0.00,VWS V14.01,2013-05-06 20:38:00,
2013-05-06 16:43:00,68.4,39.7,30.05,ENE,64,0.0,0.0,35,0.00,,---,0.00,VWS V14.01,2013-05-06 20:43:00,
2013-05-06 16:48:00,68.8,38.5,30.05,NNW,342,0.0,0.0,33,0.00,,---,0.00,VWS V14.01,2013-05-06 20:48:00,
2013-05-06 16:53:00,68.9,39.4,30.05,NNE,13,0.0,0.0,34,0.00,,---,0.00,VWS V14.01,2013-05-06 20:53:00,
2013-05-06 16:58:00,68.9,40.2,30.04,NNE,27,0.0,0.0,35,0.00,,---,0.00,VWS V14.01,2013-05-06 20:58:00,
2013-05-06 17:03:00,69.1,40.3,30.04,NNE,27,0.0,0.0,35,0.00,,---,0.00,VWS V14.01,2013-05-06 21:03:00,
2013-05-06 17:08:00,69.3,39.8,30.04,NE,44,0.0,0.0,34,0.00,,---,0.00,VWS V14.01,2013-05-06 21:08:00,
2013-05-06 17:13:00,69.3,39.0,30.04,North,360,0.0,0.0,33,0.00,,---,0.00,VWS V14.01,2013-05-06 21:13:00,
2013-05-06 17:18:00,69.4,38.3,30.04,NNE,32,0.0,0.0,32,0.00,,---,0.00,VWS V14.01,2013-05-06 21:18:00,
2013-05-06 17:23:00,69.8,37.8,30.04,North,5,0.0,0.0,31,0.00,,---,0.00,VWS V14.01,2013-05-06 21:23:00,
2013-05-06 17:28:00,69.8,37.0,30.04,North,355,0.0,0.0,30,0.00,,---,0.00,VWS V14.01,2013-05-06 21:28:00,
2013-05-06 17:33:00,69.8,37.0,30.04,NNE,26,0.0,0.0,30,0.00,,---,0.00,VWS V14.01,2013-05-06 21:33:00,
2013-05-06 17:38:00,69.9,38.7,30.04,North,10,0.0,0.0,32,0.00,,---,0.00,VWS V14.01,2013-05-06 21:38:00,
2013-05-06 17:43:00,70.1,35.5,30.03,NE,34,0.0,0.0,28,0.00,,---,0.00,VWS V14.01,2013-05-06 21:43:00,
2013-05-06 17:48:00,70.1,35.5,30.03,North,11,0.0,0.0,28,0.00,,---,0.00,VWS V14.01,2013-05-06 21:48:00,
2013-05-06 17:53:00,70.3,36.6,30.03,North,11,0.0,0.0,29,0.00,,---,0.00,VWS V14.01,2013-05-06 21:53:00,
2013-05-06 17:58:00,70.4,34.9,30.03,NNW,331,0.0,0.0,27,0.00,,---,0.00,VWS V14.01,2013-05-06 21:58:00,
2013-05-06 18:03:00,70.6,35.9,30.03,North,355,0.0,0.0,28,0.00,,---,0.00,VWS V14.01,2013-05-06 22:03:00,
2013-05-06 18:08:00,70.6,34.1,30.03,NNE,33,0.0,0.0,26,0.00,,---,0.00,VWS V14.01,2013-05-06 22:08:00,
2013-05-06 18:13:00,70.4,33.9,30.03,North,360,0.0,0.0,26,0.00,,---,0.00,VWS V14.01,2013-05-06 22:13:00,
2013-05-06 18:19:00,70.3,34.8,30.03,NNE,27,0.0,0.0,27,0.00,,---,0.00,VWS V14.01,2013-05-06 22:19:00,
2013-05-06 18:24:00,70.1,35.5,30.03,North,5,0.0,0.0,28,0.00,,---,0.00,VWS V14.01,2013-05-06 22:24:00,
2013-05-06 18:29:00,69.8,34.3,30.03,NNE,23,0.0,0.0,27,0.00,,---,0.00,VWS V14.01,2013-05-06 22:29:00,
2013-05-06 18:34:00,69.8,33.4,30.03,NNE,32,0.0,0.0,26,0.00,,---,0.00,VWS V14.01,2013-05-06 22:34:00,
2013-05-06 18:39:00,69.8,34.3,30.03,North,11,0.0,0.0,27,0.00,,---,0.00,VWS V14.01,2013-05-06 22:39:00,
2013-05-06 18:44:00,69.6,33.2,30.02,NE,40,0.0,0.0,26,0.00,,---,0.00,VWS V14.01,2013-05-06 22:44:00,
2013-05-06 18:49:00,69.4,34.0,30.02,NNE,15,0.0,0.0,27,0.00,,---,0.00,VWS V14.01,2013-05-06 22:49:00,
2013-05-06 18:54:00,69.4,34.9,30.02,NNE,28,0.0,0.0,28,0.00,,---,0.00,VWS V14.01,2013-05-06 22:54:00,
2013-05-06 18:59:00,69.3,33.9,30.02,NE,34,0.0,0.0,27,0.00,,---,0.00,VWS V14.01,2013-05-06 22:59:00,
2013-05-06 19:04:00,69.3,34.8,30.02,NNE,21,0.0,0.0,28,0.00,,---,0.00,VWS V14.01,2013-05-06 23:04:00,
2013-05-06 19:09:00,69.1,33.7,30.02,North,5,0.0,0.0,27,0.00,,---,0.00,VWS V14.01,2013-05-06 23:09:00,
2013-05-06 19:14:00,68.9,32.6,30.02,North,5,0.0,0.0,26,0.00,,---,0.00,VWS V14.01,2013-05-06 23:14:00,
2013-05-06 19:19:00,68.9,33.6,30.02,NNE,33,0.0,0.0,27,0.00,,---,0.00,VWS V14.01,2013-05-06 23:19:00,
2013-05-06 19:24:00,68.8,33.5,30.02,North,5,0.0,0.0,27,0.00,,---,0.00,VWS V14.01,2013-05-06 23:24:00,
2013-05-06 19:29:00,68.8,34.4,30.03,NNE,26,0.0,0.0,28,0.00,,---,0.00,VWS V14.01,2013-05-06 23:29:00,
2013-05-06 19:34:00,68.6,33.3,30.03,NNE,17,0.0,0.0,27,0.00,,---,0.00,VWS V14.01,2013-05-06 23:34:00,
2013-05-06 19:39:00,68.4,34.0,30.03,NNE,19,0.0,0.0,28,0.00,,---,0.00,VWS V14.01,2013-05-06 23:39:00,
2013-05-06 19:44:00,68.1,33.8,30.03,NE,38,0.0,0.0,28,0.00,,---,0.00,VWS V14.01,2013-05-06 23:44:00,
2013-05-06 19:49:00,68.1,34.7,30.03,NNE,32,0.0,0.0,29,0.00,,---,0.00,VWS V14.01,2013-05-06 23:49:00,
2013-05-06 19:54:00,67.9,34.5,30.03,NNE,13,0.0,0.0,29,0.00,,---,0.00,VWS V14.01,2013-05-06 23:54:00,
2013-05-06 19:59:00,67.6,35.1,30.03,NNE,32,0.0,0.0,30,0.00,,---,0.00,VWS V14.01,2013-05-06 23:59:00,
2013-05-06 20:04:00,67.4,35.7,30.03,NE,38,0.0,0.0,31,0.00,,---,0.00,VWS V14.01,2013-05-07 00:04:00,
2013-05-06 20:09:00,67.3,36.5,30.03,NNE,16,0.0,0.0,32,0.00,,---,0.00,VWS V14.01,2013-05-07 00:09:00,
2013-05-06 20:14:00,66.9,36.1,30.03,NNE,32,0.0,0.0,32,0.00,,---,0.00,VWS V14.01,2013-05-07 00:14:00,
2013-05-06 20:19:00,66.8,36.0,30.03,North,11,0.0,0.0,32,0.00,,---,0.00,VWS V14.01,2013-05-07 00:19:00,
2013-05-06 20:24:00,66.6,36.6,30.03,North,11,0.0,0.0,33,0.00,,---,0.00,VWS V14.01,2013-05-07 00:24:00,
2013-05-06 20:29:00,66.4,38.7,30.03,North,11,0.0,0.0,36,0.00,,---,0.00,VWS V14.01,2013-05-07 00:29:00,
2013-05-06 20:34:00,66.1,38.4,30.03,North,11,0.0,0.0,36,0.00,,---,0.00,VWS V14.01,2013-05-07 00:34:00,
2013-05-06 20:40:00,66.0,39.0,30.03,North,11,0.0,0.0,37,0.00,,---,0.00,VWS V14.01,2013-05-07 00:40:00,
2013-05-06 20:45:00,65.6,38.7,30.04,North,11,0.0,0.0,37,0.00,,---,0.00,VWS V14.01,2013-05-07 00:45:00,
2013-05-06 20:50:00,65.3,41.0,30.04,North,11,0.0,0.0,41,0.00,,---,0.00,VWS V14.01,2013-05-07 00:50:00,
2013-05-06 20:55:00,64.8,38.6,30.04,North,11,0.0,0.0,38,0.00,,---,0.00,VWS V14.01,2013-05-07 00:55:00,
2013-05-06 21:00:00,64.2,42.4,30.04,North,11,0.0,0.0,45,0.00,,---,0.00,VWS V14.01,2013-05-07 01:00:00,
2013-05-06 21:05:00,63.4,40.5,30.04,North,11,0.0,0.0,43,0.00,,---,0.00,VWS V14.01,2013-05-07 01:05:00,
2013-05-06 21:10:00,62.9,40.7,30.04,North,11,0.0,0.0,44,0.00,,---,0.00,VWS V14.01,2013-05-07 01:10:00,
2013-05-06 21:15:00,62.6,41.0,30.04,NNE,12,0.0,0.0,45,0.00,,---,0.00,VWS V14.01,2013-05-07 01:15:00,
2013-05-06 21:20:00,62.1,40.5,30.05,NNE,17,0.0,0.0,45,0.00,,---,0.00,VWS V14.01,2013-05-07 01:20:00,
2013-05-06 21:25:00,62.0,40.4,30.05,East,86,0.0,0.0,45,0.00,,---,0.00,VWS V14.01,2013-05-07 01:25:00,
2013-05-06 21:30:00,62.0,41.0,30.05,East,82,0.0,0.0,46,0.00,,---,0.00,VWS V14.01,2013-05-07 01:30:00,
2013-05-06 21:35:00,61.8,39.7,30.05,East,85,0.0,0.0,44,0.00,,---,0.00,VWS V14.01,2013-05-07 01:35:00,
2013-05-06 21:40:00,61.6,40.1,30.05,East,85,0.0,0.0,45,0.00,,---,0.00,VWS V14.01,2013-05-07 01:40:00,
2013-05-06 21:45:00,61.2,39.7,30.05,East,85,0.0,0.0,45,0.00,,---,0.00,VWS V14.01,2013-05-07 01:45:00,
2013-05-06 21:50:00,60.9,39.4,30.05,East,85,0.0,0.0,45,0.00,,---,0.00,VWS V14.01,2013-05-07 01:50:00,
2013-05-06 21:55:00,60.7,39.3,30.05,East,85,0.0,0.0,45,0.00,,---,0.00,VWS V14.01,2013-05-07 01:55:00,
2013-05-06 22:00:00,60.5,38.5,30.06,East,85,0.0,0.0,44,0.00,,---,0.00,VWS V14.01,2013-05-07 02:00:00,
2013-05-06 22:05:00,60.5,37.9,30.06,East,85,0.0,0.0,43,0.00,,---,0.00,VWS V14.01,2013-05-07 02:05:00,
2013-05-06 22:10:00,60.7,38.7,30.06,East,84,0.0,0.0,44,0.00,,---,0.00,VWS V14.01,2013-05-07 02:10:00,
2013-05-06 22:15:00,60.9,37.7,30.06,East,82,0.0,0.0,42,0.00,,---,0.00,VWS V14.01,2013-05-07 02:15:00,
2013-05-06 22:20:00,60.9,38.3,30.06,East,80,0.0,0.0,43,0.00,,---,0.00,VWS V14.01,2013-05-07 02:20:00,
2013-05-06 22:25:00,60.9,38.9,30.06,East,80,0.0,0.0,44,0.00,,---,0.00,VWS V14.01,2013-05-07 02:25:00,
2013-05-06 22:30:00,60.7,38.7,30.06,East,80,0.0,0.0,44,0.00,,---,0.00,VWS V14.01,2013-05-07 02:30:00,
2013-05-06 22:35:00,60.5,38.5,30.06,East,80,0.0,0.0,44,0.00,,---,0.00,VWS V14.01,2013-05-07 02:35:00,
2013-05-06 22:40:00,60.2,38.8,30.06,East,80,0.0,0.0,45,0.00,,---,0.00,VWS V14.01,2013-05-07 02:40:00,
2013-05-06 22:45:00,60.2,37.6,30.06,SSE,168,0.0,0.0,43,0.00,,---,0.00,VWS V14.01,2013-05-07 02:45:00,
2013-05-06 22:50:00,60.1,37.0,30.06,SW,232,0.0,0.0,42,0.00,,---,0.00,VWS V14.01,2013-05-07 02:50:00,
2013-05-06 22:55:00,60.2,37.6,30.06,SW,232,0.0,0.0,43,0.00,,---,0.00,VWS V14.01,2013-05-07 02:55:00,
2013-05-06 23:00:00,60.1,38.1,30.06,East,101,0.0,0.0,44,0.00,,---,0.00,VWS V14.01,2013-05-07 03:00:00,
2013-05-06 23:05:00,60.2,37.6,30.06,NNE,24,0.0,0.0,43,0.00,,---,0.00,VWS V14.01,2013-05-07 03:05:00,
2013-05-06 23:10:00,60.2,41.0,30.06,NW,322,0.0,0.0,49,0.00,,---,0.00,VWS V14.01,2013-05-07 03:10:00,
2013-05-06 23:15:00,59.6,40.4,30.07,NW,322,0.0,0.0,49,0.00,,---,0.00,VWS V14.01,2013-05-07 03:15:00,
2013-05-06 23:20:00,59.2,39.0,30.06,NW,322,0.0,0.0,47,0.00,,---,0.00,VWS V14.01,2013-05-07 03:20:00,
2013-05-06 23:25:00,58.9,38.2,30.06,West,268,0.0,0.0,46,0.00,,---,0.00,VWS V14.01,2013-05-07 03:25:00,
2013-05-06 23:30:00,58.6,39.0,30.06,West,267,0.0,0.0,48,0.00,,---,0.00,VWS V14.01,2013-05-07 03:30:00,
2013-05-06 23:35:00,58.3,38.2,30.07,West,267,0.0,0.0,47,0.00,,---,0.00,VWS V14.01,2013-05-07 03:35:00,
2013-05-06 23:40:00,58.0,37.9,30.07,West,267,0.0,0.0,47,0.00,,---,0.00,VWS V14.01,2013-05-07 03:40:00,
2013-05-06 23:45:00,57.6,37.5,30.07,West,267,0.0,0.0,47,0.00,,---,0.00,VWS V14.01,2013-05-07 03:45:00,
2013-05-06 23:50:00,57.5,38.0,30.07,West,267,0.0,0.0,48,0.00,,---,0.00,VWS V14.01,2013-05-07 03:50:00,
2013-05-06 23:55:00,57.2,38.8,30.07,West,267,0.0,0.0,50,0.00,,---,0.00,VWS V14.01,2013-05-07 03:55:00,